TITAN 3C TRANSTAGE R/B, 2868

Orbit data source: Space-Track

TITAN 3C TRANSTAGE R/B, 2868 is space debris in GEO originally from a launch on Sat, 01 Jul 1967 UTC launched from the Air Force Eastern Test Range (AFETR). Debris objects in space refer to the collection of defunct objects orbiting the Earth. Examples of debris include non-operational satellites, rocket bodies, and fragments generated from explosions, collisions, or faulty payload assembly.

Not visible in the next 10 days
Identifier
2868, 1967-066G
Orbit
GEO
Country
Flag of USUS
Related business
Manufacturer
Martin Marietta
Mission
Spacecraft
Bus & Motor
TRANSTAGE, Unknown motor
Mass
2,176 kg wet, 2,050 kg dry
Launch date (UTC)
1967-07-01 (58 years ago)
Launch vehicle
Unknown
Launch site
Air Force Eastern Test Range (AFETR)
Object type
Payload
Rocket body
Debris
Shape & HBR
Cyl + 2 Nozzle, 2.3 m
Radar Cross Section
14.974 m², Large (>1 m²)

Expand to show TLE details & history
Last TLE update: 20 hours ago

TLE from 20 hours ago
0 TITAN 3C TRANSTAGE R/B
1 02868U 67066G   25242.15633414 -.00000091  00000-0  00000-0 0  9992
2 02868   1.6879 109.2654 0083524 158.3878  59.9480  1.08907907125167
Epoch: 2025-08-30T03:45Z
TLE epoch observation values (Epoch: 2025-08-30T03:45:07.269Z)
Latitude
-1.06946°
Longitude
-66.46125°
Altitude
33,361.508 km
Speed
3.174 km/s
True Right ascension
21h 53m 39s
True Declination
-1° 04' 06"
Sunlit
Object was in daylight at epoch
Visualization orbit readout
Latitude
Unknown
Longitude
Unknown
Altitude
Unknown
Speed
Unknown
Apparent Right ascension
Unknown
Apparent Declination
Unknown
Sunlit
N/A
Visualization observer readout
Local Sidereal Time
15:40:06
Azimuth
Unknown
Elevation
Unknown
Doppler factor
Unknown
Orbital elements
Apogee altitude
33,861.449 km
Perigee altitude
33,194.822 km
Semi-major axis
39,906.272 km
Eccentricity
0.00835
Inclination
1.6879°
RAAN
109.2654°
Arg. of periapsis
158.3878°
True anomaly
60.78077°
Mean anomaly
59.948°
Eccentric anomaly
60.36395°
Mean motion
0.27226 °/min
Orbital period
1,322.27 mins
BSTAR
0
Loading maneuver chart data...
Computing Atmospheric mass density...
Loading historical data...
Loading historical data...
Loading historical data...
Loading historical data...
Loading historical data...
Loading historical data...
Loading historical data...

Documentation

Showing up to 5 results
|